QPF
0.02 0.03 0.03 0.03 0.03 0.02 0.01 0.02 0.01 0.01 0.02 0.03 0.03 0.03 0.03 0.03 0.03 0.04 0.05 0.05 0.05 0.06 0.06 0.05 0.05 0.05 0.06 0.06 0.04 0.03 0.02 0.03 0.02 0.02 0.03 0.03 0.03 0.05 0.08 0.08 0.06 0.06 0.04
0.02 0.02 0.02 0.02 0.01 0.01 0.02 0.01 0.01 0.01 0.01 0.02 0.02 0.02 0.03 0.03 0.03 0.03 0.03 0.03 0.03 0.02 0.02 0.03 0.04 0.05 0.05 0.05 0.06 0.05 0.04 0.04 0.02 0.02 0.03 0.03 0.04 0.06 0.07 0.08 0.06 0.03 0.03
0.01 0.01 0.01 0.01 0.01 0.01 0.02 0.01 0.01 0.01 0.01 0.01 0.01 0.02 0.02 0.03 0.03 0.03 0.02 0.02 0.03 0.02 0.02 0.02 0.03 0.05 0.04 0.05 0.06 0.05 0.05 0.04 0.04 0.03 0.03 0.04 0.04 0.05 0.07 0.06 0.04 0.03 0.03
0.01 0.02 0.02 0.01 0.01 0.01 0.01 0.01 0.01 0.01 0.01 0.01 0.01 0.01 0.02 0.02 0.02 0.03 0.02 0.02 0.02 0.02 0.02 0.02 0.02 0.03 0.04 0.05 0.06 0.06 0.06 0.05 0.05 0.04 0.03 0.03 0.04 0.05 0.05 0.04 0.04 0.04 0.04
0.04 0.03 0.03 0.02 0.02 0.02 0.01 0.01 0.01 0.01 0.01 0.01 0.02 0.02 0.02 0.01 0.01 0.01 0.01 0.02 0.02 0.02 0.02 0.02 0.02 0.02 0.03 0.05 0.04 0.06 0.06 0.04 0.04 0.04 0.04 0.04 0.04 0.04 0.04 0.04 0.04 0.05 0.06
0.06 0.06 0.05 0.04 0.03 0.03 0.02 0.02 0.02 0.02 0.02 0.03 0.02 0.02 0.02 0.01 0.01 0.01 0.02 0.02 0.03 0.03 0.03 0.04 0.03 0.03 0.03 0.03 0.03 0.04 0.04 0.03 0.03 0.04 0.03 0.04 0.05 0.05 0.05 0.05 0.04 0.05 0.06
0.05 0.06 0.07 0.06 0.04 0.04 0.03 0.02 0.03 0.04 0.05 0.04 0.03 0.03 0.03 0.03 0.02 0.02 0.03 0.02 0.03 0.03 0.04 0.04 0.03 0.02 0.03 0.04 0.04 0.03 0.03 0.03 0.03 0.03 0.02 0.03 0.05 0.06 0.05 0.04 0.04 0.05 0.06
0.04 0.03 0.04 0.05 0.05 0.04 0.03 0.03 0.03 0.04 0.04 0.05 0.05 0.05 0.05 0.05 0.05 0.06 0.05 0.04 0.03 0.04 0.04 0.03 0.03 0.02 0.03 0.03 0.04 0.04 0.04 0.03 0.03 0.02 0.02 0.04 0.05 0.05 0.04 0.04 0.05 0.06 0.07
0.03 0.02 0.03 0.04 0.03 0.04 0.04 0.05 0.05 0.05 0.07 0.08 0.08 0.08 0.08 0.08 0.09 0.10 0.10 0.08 0.06 0.05 0.04 0.03 0.03 0.02 0.03 0.03 0.03 0.04 0.04 0.03 0.02 0.03 0.02 0.02 0.02 0.02 0.02 0.03 0.04 0.05 0.06
0.02 0.02 0.02 0.02 0.02 0.03 0.05 0.05 0.06 0.07 0.07 0.07 0.08 0.10 0.12 0.16 0.18 0.14 0.12 0.09 0.06 0.04 0.03 0.03 0.03 0.03 0.05 0.06 0.05 0.04 0.03 0.02 0.02 0.02 0.02 0.02 0.02 0.02 0.02 0.03 0.04 0.06 0.07
0.03 0.02 0.01 0.02 0.04 0.07 0.09 0.11 0.11 0.12 0.11 0.12 0.14 0.13 0.11 0.10 0.11 0.09 0.08 0.06 0.06 0.05 0.04 0.04 0.05 0.07 0.08 0.07 0.04 0.03 0.02 0.02 0.01 0.02 0.02 0.02 0.02 0.02 0.02 0.02 0.03 0.04 0.04
0.03 0.02 0.01 0.02 0.03 0.05 0.07 0.08 0.07 0.06 0.05 0.05 0.07 0.07 0.07 0.07 0.07 0.07 0.05 0.04 0.05 0.04 0.05 0.06 0.09 0.09 0.07 0.06 0.03 0.02 0.01 0.01 0.02 0.02 0.02 0.02 0.02 0.02 0.02 0.03 0.04 0.04 0.04
0.02 0.01 0.01 0.02 0.02 0.02 0.03 0.03 0.03 0.03 0.03 0.03 0.03 0.02 0.02 0.02 0.02 0.02 0.03 0.04 0.04 0.03 0.05 0.07 0.06 0.03 0.02 0.03 0.03 0.02 0.01 0.01 0.02 0.02 0.02 0.02 0.02 0.02 0.02 0.04 0.05 0.04 0.04
0.01 0.02 0.02 0.02 0.02 0.03 0.04 0.04 0.04 0.04 0.04 0.03 0.02 0.02 0.02 0.01 0.01 0.02 0.03 0.03 0.03 0.02 0.03 0.04 0.04 0.03 0.02 0.02 0.01 0.01 0.01 0.01 0.01 0.02 0.02 0.02 0.02 0.02 0.03 0.03 0.04 0.05 0.06
0.03 0.04 0.05 0.06 0.06 0.06 0.06 0.06 0.06 0.04 0.03 0.03 0.03 0.02 0.02 0.02 0.02 0.03 0.03 0.02 0.01 0.01 0.01 0.02 0.03 0.04 0.04 0.04 0.03 0.02 0.02 0.01 0.01 0.01 0.02 0.02 0.02 0.03 0.03 0.03 0.04 0.05 0.05
0.02 0.03 0.04 0.06 0.07 0.07 0.07 0.06 0.06 0.06 0.04 0.03 0.03 0.03 0.02 0.02 0.01 0.01 0.01 0.01 0.01 0.01 0.01 0.01 0.01 0.02 0.03 0.04 0.05 0.05 0.04 0.03 0.02 0.02 0.02 0.02 0.02 0.03 0.03 0.04 0.04 0.04 0.05
0.02 0.03 0.03 0.03 0.04 0.04 0.05 0.06 0.06 0.06 0.04 0.02 0.02 0.01 0.01 0.01 0.00 0.00 0.00 0.00 0.00 0.00 0.00 0.01 0.01 0.01 0.01 0.02 0.02 0.03 0.03 0.03 0.04 0.03 0.03 0.02 0.02 0.03 0.04 0.04 0.04 0.05 0.06
0.04 0.05 0.05 0.05 0.05 0.05 0.05 0.06 0.06 0.06 0.04 0.02 0.02 0.01 0.00 0.00 0.00 0.00 0.00 0.00 0.00 0.00 0.00 0.00 0.00 0.01 0.01 0.02 0.02 0.01 0.01 0.01 0.02 0.02 0.02 0.03 0.03 0.05 0.06 0.05 0.05 0.05 0.05
0.05 0.05 0.05 0.06 0.07 0.07 0.07 0.07 0.06 0.06 0.04 0.03 0.02 0.01 0.01 0.00 0.00 0.00 0.00 0.00 0.00 0.00 0.00 0.00 0.00 0.01 0.01 0.01 0.02 0.02 0.02 0.01 0.01 0.02 0.02 0.03 0.04 0.05 0.05 0.05 0.05 0.05 0.06
0.04 0.05 0.07 0.07 0.07 0.07 0.06 0.07 0.08 0.06 0.05 0.03 0.02 0.01 0.01 0.00 0.00 0.00 0.00 0.00 0.00 0.01 0.01 0.01 0.01 0.01 0.01 0.01 0.02 0.02 0.02 0.02 0.02 0.03 0.03 0.03 0.03 0.04 0.05 0.05 0.05 0.06 0.07
0.03 0.04 0.05 0.05 0.06 0.07 0.06 0.07 0.08 0.07 0.06 0.05 0.03 0.03 0.02 0.01 0.00 0.00 0.00 0.00 0.00 0.00 0.01 0.01 0.01 0.01 0.01 0.02 0.02 0.02 0.02 0.02 0.02 0.02 0.02 0.03 0.03 0.04 0.05 0.07 0.07 0.06 0.07
0.01 0.02 0.02 0.02 0.03 0.04 0.04 0.04 0.06 0.06 0.06 0.06 0.05 0.05 0.03 0.02 0.01 0.01 0.01 0.01 0.00 0.00 0.00 0.00 0.00 0.00 0.01 0.01 0.01 0.02 0.02 0.02 0.02 0.02 0.02 0.02 0.03 0.03 0.04 0.05 0.05 0.05 0.05
0.01 0.01 0.01 0.01 0.01 0.02 0.03 0.03 0.03 0.04 0.04 0.04 0.05 0.05 0.04 0.03 0.02 0.02 0.02 0.01 0.01 0.00 0.00 0.00 0.00 0.00 0.00 0.01 0.01 0.02 0.02 0.02 0.02 0.02 0.02 0.02 0.02 0.03 0.04 0.04 0.04 0.04 0.04
0.01 0.01 0.02 0.02 0.02 0.02 0.02 0.02 0.03 0.03 0.03 0.03 0.03 0.04 0.03 0.03 0.03 0.02 0.01 0.01 0.01 0.00 0.00 0.00 0.00 0.00 0.00 0.01 0.01 0.02 0.03 0.03 0.03 0.03 0.03 0.02 0.02 0.02 0.03 0.02 0.02 0.02 0.03
0.01 0.01 0.02 0.02 0.02 0.02 0.03 0.03 0.03 0.03 0.03 0.04 0.03 0.03 0.02 0.03 0.03 0.03 0.02 0.01 0.01 0.01 0.00 0.00 0.00 0.00 0.00 0.01 0.02 0.02 0.02 0.02 0.03 0.03 0.02 0.01 0.01 0.02 0.02 0.02 0.02 0.03 0.03
0.02 0.03 0.03 0.03 0.03 0.03 0.03 0.03 0.03 0.03 0.03 0.03 0.02 0.02 0.02 0.02 0.03 0.03 0.03 0.03 0.02 0.01 0.01 0.00 0.00 0.00 0.01 0.01 0.01 0.02 0.01 0.01 0.01 0.02 0.02 0.01 0.01 0.02 0.02 0.02 0.02 0.03 0.04
MSLP
1010.08 1010.58 1011.05 1011.45 1011.77 1011.99 1012.11 1012.16 1012.15 1012.11 1012.07 1012.05 1012.05 1012.09 1012.16 1012.26 1012.37 1012.50 1012.63 1012.76 1012.90 1013.04 1013.20 1013.36 1013.53 1013.70 1013.87 1014.03 1014.19 1014.33 1014.46 1014.60 1014.75 1014.93 1015.15 1015.41 1015.73 1016.11 1016.55 1017.04 1017.56 1018.10 1018.65
1009.39 1009.84 1010.26 1010.63 1010.93 1011.14 1011.28 1011.36 1011.40 1011.41 1011.42 1011.45 1011.49 1011.55 1011.63 1011.72 1011.81 1011.91 1011.99 1012.08 1012.18 1012.28 1012.40 1012.53 1012.68 1012.84 1013.01 1013.19 1013.36 1013.52 1013.69 1013.85 1014.02 1014.21 1014.43 1014.69 1015.01 1015.38 1015.80 1016.28 1016.80 1017.35 1017.91
1008.73 1009.13 1009.50 1009.82 1010.09 1010.29 1010.44 1010.55 1010.63 1010.70 1010.77 1010.85 1010.94 1011.04 1011.14 1011.23 1011.31 1011.38 1011.43 1011.48 1011.53 1011.58 1011.66 1011.76 1011.88 1012.03 1012.19 1012.37 1012.54 1012.72 1012.89 1013.06 1013.24 1013.44 1013.66 1013.91 1014.22 1014.57 1014.98 1015.44 1015.93 1016.47 1017.02
1008.08 1008.45 1008.77 1009.05 1009.27 1009.46 1009.61 1009.74 1009.86 1009.99 1010.12 1010.27 1010.41 1010.55 1010.68 1010.78 1010.85 1010.90 1010.92 1010.93 1010.93 1010.95 1010.99 1011.06 1011.15 1011.28 1011.42 1011.58 1011.74 1011.91 1012.07 1012.24 1012.41 1012.59 1012.80 1013.05 1013.34 1013.67 1014.06 1014.49 1014.96 1015.46 1015.99
1007.42 1007.77 1008.06 1008.31 1008.51 1008.68 1008.83 1008.98 1009.15 1009.32 1009.51 1009.71 1009.91 1010.09 1010.24 1010.35 1010.42 1010.45 1010.44 1010.42 1010.40 1010.38 1010.39 1010.43 1010.50 1010.59 1010.70 1010.83 1010.97 1011.10 1011.23 1011.37 1011.51 1011.67 1011.86 1012.08 1012.35 1012.67 1013.03 1013.43 1013.87 1014.34 1014.83
1006.78 1007.13 1007.41 1007.64 1007.83 1007.99 1008.15 1008.33 1008.52 1008.74 1008.97 1009.22 1009.45 1009.66 1009.83 1009.95 1010.01 1010.03 1010.01 1009.97 1009.92 1009.88 1009.87 1009.87 1009.91 1009.97 1010.05 1010.13 1010.21 1010.28 1010.36 1010.44 1010.53 1010.65 1010.80 1011.00 1011.25 1011.55 1011.89 1012.27 1012.69 1013.12 1013.56
1006.19 1006.56 1006.86 1007.10 1007.29 1007.45 1007.63 1007.82 1008.04 1008.28 1008.55 1008.83 1009.09 1009.31 1009.49 1009.60 1009.66 1009.66 1009.63 1009.57 1009.51 1009.45 1009.42 1009.40 1009.40 1009.42 1009.44 1009.45 1009.46 1009.46 1009.45 1009.45 1009.48 1009.54 1009.65 1009.82 1010.04 1010.33 1010.66 1011.03 1011.43 1011.83 1012.25
1005.72 1006.14 1006.46 1006.72 1006.92 1007.11 1007.30 1007.51 1007.74 1008.01 1008.30 1008.59 1008.85 1009.08 1009.25 1009.35 1009.40 1009.39 1009.34 1009.27 1009.19 1009.12 1009.06 1009.01 1008.97 1008.93 1008.87 1008.81 1008.72 1008.62 1008.51 1008.42 1008.36 1008.35 1008.41 1008.55 1008.76 1009.03 1009.37 1009.74 1010.14 1010.54 1010.93
1005.47 1005.91 1006.27 1006.56 1006.79 1006.99 1007.20 1007.42 1007.67 1007.95 1008.24 1008.53 1008.79 1009.00 1009.15 1009.23 1009.26 1009.23 1009.16 1009.07 1008.97 1008.87 1008.78 1008.69 1008.59 1008.48 1008.34 1008.18 1007.98 1007.77 1007.55 1007.36 1007.21 1007.13 1007.13 1007.24 1007.43 1007.71 1008.06 1008.45 1008.86 1009.28 1009.68
1005.47 1005.94 1006.32 1006.63 1006.88 1007.10 1007.32 1007.56 1007.81 1008.09 1008.37 1008.64 1008.88 1009.07 1009.19 1009.25 1009.24 1009.18 1009.09 1008.97 1008.84 1008.70 1008.57 1008.42 1008.26 1008.07 1007.84 1007.56 1007.25 1006.93 1006.60 1006.30 1006.06 1005.91 1005.87 1005.94 1006.12 1006.41 1006.78 1007.20 1007.64 1008.09 1008.51
1005.75 1006.23 1006.62 1006.93 1007.19 1007.41 1007.63 1007.86 1008.11 1008.37 1008.64 1008.88 1009.09 1009.25 1009.34 1009.36 1009.32 1009.23 1009.10 1008.94 1008.77 1008.59 1008.40 1008.19 1007.95 1007.67 1007.34 1006.96 1006.55 1006.11 1005.68 1005.29 1004.97 1004.75 1004.66 1004.71 1004.88 1005.18 1005.57 1006.02 1006.50 1006.98 1007.44
1006.29 1006.74 1007.11 1007.40 1007.64 1007.86 1008.06 1008.27 1008.50 1008.74 1008.97 1009.18 1009.36 1009.48 1009.53 1009.52 1009.45 1009.32 1009.15 1008.95 1008.73 1008.49 1008.24 1007.96 1007.64 1007.28 1006.86 1006.39 1005.87 1005.35 1004.83 1004.36 1003.98 1003.71 1003.57 1003.59 1003.75 1004.05 1004.45 1004.92 1005.43 1005.95 1006.46
1007.01 1007.40 1007.72 1007.97 1008.17 1008.34 1008.51 1008.69 1008.88 1009.07 1009.27 1009.45 1009.59 1009.67 1009.69 1009.64 1009.53 1009.37 1009.16 1008.92 1008.66 1008.37 1008.05 1007.71 1007.32 1006.87 1006.38 1005.83 1005.25 1004.66 1004.08 1003.56 1003.12 1002.81 1002.64 1002.63 1002.77 1003.05 1003.44 1003.92 1004.44 1004.99 1005.53
1007.79 1008.11 1008.35 1008.54 1008.67 1008.78 1008.89 1009.02 1009.15 1009.30 1009.45 1009.59 1009.69 1009.74 1009.73 1009.66 1009.52 1009.33 1009.09 1008.81 1008.51 1008.17 1007.81 1007.40 1006.96 1006.46 1005.92 1005.32 1004.70 1004.07 1003.45 1002.90 1002.43 1002.08 1001.88 1001.83 1001.93 1002.18 1002.54 1003.00 1003.52 1004.06 1004.62
1008.53 1008.76 1008.91 1009.00 1009.06 1009.09 1009.13 1009.19 1009.26 1009.36 1009.46 1009.56 1009.62 1009.64 1009.61 1009.52 1009.36 1009.15 1008.89 1008.59 1008.25 1007.88 1007.48 1007.05 1006.56 1006.04 1005.47 1004.86 1004.22 1003.58 1002.96 1002.39 1001.91 1001.54 1001.30 1001.21 1001.26 1001.45 1001.75 1002.16 1002.64 1003.16 1003.71
1009.12 1009.25 1009.31 1009.31 1009.28 1009.23 1009.19 1009.18 1009.19 1009.23 1009.28 1009.34 1009.37 1009.37 1009.32 1009.21 1009.05 1008.83 1008.55 1008.24 1007.89 1007.50 1007.08 1006.63 1006.14 1005.61 1005.04 1004.44 1003.82 1003.20 1002.59 1002.03 1001.54 1001.15 1000.88 1000.73 1000.72 1000.83 1001.06 1001.39 1001.80 1002.28 1002.80
1009.51 1009.55 1009.52 1009.43 1009.32 1009.20 1009.10 1009.02 1008.97 1008.96 1008.97 1008.98 1008.99 1008.97 1008.90 1008.78 1008.61 1008.38 1008.11 1007.79 1007.43 1007.04 1006.62 1006.17 1005.69 1005.18 1004.64 1004.07 1003.48 1002.89 1002.32 1001.78 1001.30 1000.89 1000.58 1000.38 1000.29 1000.32 1000.46 1000.70 1001.03 1001.43 1001.90
1009.68 1009.64 1009.54 1009.39 1009.22 1009.05 1008.89 1008.77 1008.68 1008.62 1008.59 1008.58 1008.55 1008.50 1008.42 1008.29 1008.11 1007.88 1007.60 1007.28 1006.92 1006.53 1006.12 1005.69 1005.23 1004.75 1004.25 1003.73 1003.19 1002.65 1002.11 1001.59 1001.12 1000.70 1000.36 1000.11 999.95 999.89 999.94 1000.08 1000.32 1000.65 1001.06
1009.67 1009.58 1009.43 1009.25 1009.04 1008.84 1008.66 1008.50 1008.39 1008.30 1008.25 1008.20 1008.15 1008.07 1007.96 1007.81 1007.61 1007.37 1007.07 1006.75 1006.39 1006.01 1005.61 1005.20 1004.77 1004.33 1003.87 1003.40 1002.91 1002.42 1001.92 1001.44 1000.98 1000.55 1000.19 999.89 999.66 999.53 999.50 999.56 999.72 999.97 1000.33
1009.54 1009.42 1009.25 1009.06 1008.85 1008.65 1008.46 1008.31 1008.18 1008.08 1008.00 1007.93 1007.85 1007.74 1007.60 1007.41 1007.18 1006.90 1006.59 1006.24 1005.88 1005.50 1005.11 1004.72 1004.32 1003.91 1003.50 1003.08 1002.64 1002.19 1001.73 1001.27 1000.83 1000.40 1000.02 999.69 999.42 999.23 999.13 999.13 999.23 999.44 999.75
1009.36 1009.24 1009.08 1008.90 1008.71 1008.53 1008.37 1008.23 1008.11 1008.01 1007.91 1007.81 1007.69 1007.55 1007.36 1007.12 1006.84 1006.53 1006.18 1005.80 1005.42 1005.03 1004.64 1004.26 1003.89 1003.51 1003.14 1002.75 1002.36 1001.95 1001.52 1001.09 1000.66 1000.24 999.85 999.50 999.21 998.99 998.85 998.82 998.89 999.06 999.35
1009.22 1009.10 1008.96 1008.81 1008.67 1008.53 1008.41 1008.29 1008.19 1008.09 1007.99 1007.86 1007.70 1007.50 1007.26 1006.97 1006.63 1006.26 1005.86 1005.45 1005.03 1004.63 1004.24 1003.86 1003.50 1003.15 1002.80 1002.45 1002.08 1001.70 1001.30 1000.89 1000.47 1000.06 999.67 999.32 999.02 998.80 998.66 998.61 998.68 998.85 999.14
1009.16 1009.06 1008.95 1008.84 1008.75 1008.66 1008.58 1008.50 1008.42 1008.32 1008.20 1008.05 1007.85 1007.60 1007.29 1006.93 1006.53 1006.10 1005.65 1005.19 1004.74 1004.32 1003.91 1003.54 1003.18 1002.84 1002.51 1002.18 1001.83 1001.47 1001.08 1000.69 1000.28 999.88 999.50 999.15 998.87 998.65 998.53 998.51 998.59 998.78 999.09
1009.22 1009.13 1009.05 1008.99 1008.94 1008.89 1008.85 1008.81 1008.74 1008.65 1008.52 1008.34 1008.09 1007.79 1007.42 1007.00 1006.54 1006.04 1005.54 1005.04 1004.56 1004.11 1003.70 1003.31 1002.96 1002.62 1002.29 1001.97 1001.63 1001.27 1000.89 1000.50 1000.10 999.71 999.34 999.01 998.74 998.56 998.47 998.48 998.60 998.83 999.16
1009.40 1009.33 1009.28 1009.24 1009.23 1009.22 1009.21 1009.18 1009.13 1009.03 1008.88 1008.67 1008.39 1008.03 1007.61 1007.13 1006.62 1006.08 1005.53 1005.00 1004.49 1004.02 1003.59 1003.19 1002.83 1002.49 1002.16 1001.83 1001.48 1001.12 1000.74 1000.34 999.94 999.55 999.19 998.89 998.65 998.50 998.44 998.50 998.67 998.94 999.32
1009.70 1009.63 1009.60 1009.59 1009.59 1009.60 1009.60 1009.59 1009.53 1009.42 1009.25 1009.01 1008.69 1008.29 1007.83 1007.31 1006.75 1006.18 1005.60 1005.05 1004.52 1004.03 1003.59 1003.18 1002.80 1002.45 1002.10 1001.75 1001.39 1001.01 1000.62 1000.21 999.80 999.42 999.07 998.78 998.57 998.45 998.44 998.55 998.76 999.09 999.50
Thickness
5788 5785 5782 5779 5777 5775 5772 5770 5767 5765 5763 5761 5759 5757 5754 5752 5750 5748 5747 5744 5742 5739 5738 5736 5733 5733 5732 5732 5730 5729 5726 5724 5718 5718 5718 5716 5712 5710 5709 5708 5707 5705 5704
5787 5782 5779 5777 5775 5773 5771 5768 5766 5763 5761 5759 5756 5754 5752 5750 5747 5745 5742 5741 5738 5735 5733 5731 5729 5729 5726 5725 5723 5722 5720 5718 5714 5710 5710 5710 5707 5706 5704 5703 5704 5703 5701
5786 5781 5777 5775 5773 5770 5768 5766 5763 5760 5758 5756 5753 5750 5748 5746 5744 5741 5739 5737 5735 5732 5730 5727 5725 5723 5720 5719 5717 5716 5715 5714 5710 5707 5706 5705 5703 5702 5700 5699 5700 5698 5698
5784 5779 5775 5773 5770 5768 5765 5762 5759 5757 5754 5752 5750 5748 5745 5743 5740 5738 5736 5733 5731 5728 5726 5723 5721 5718 5715 5713 5712 5710 5709 5707 5704 5703 5702 5701 5698 5697 5695 5694 5693 5693 5692
5779 5775 5772 5770 5767 5764 5761 5758 5755 5753 5752 5748 5746 5744 5741 5739 5737 5734 5730 5729 5725 5723 5721 5719 5717 5713 5710 5707 5708 5705 5703 5702 5701 5699 5697 5696 5694 5691 5690 5690 5688 5688 5687
5773 5770 5768 5765 5762 5760 5757 5754 5752 5749 5747 5744 5741 5739 5737 5736 5731 5726 5724 5723 5721 5718 5715 5713 5712 5709 5704 5701 5699 5697 5696 5695 5694 5693 5693 5691 5689 5688 5686 5685 5683 5681 5679
5768 5766 5763 5760 5757 5755 5753 5750 5746 5743 5741 5738 5736 5734 5731 5728 5723 5719 5716 5716 5715 5713 5710 5708 5708 5707 5701 5699 5696 5692 5691 5689 5687 5687 5687 5686 5685 5684 5681 5680 5677 5676 5675
5763 5761 5759 5756 5753 5750 5747 5744 5741 5739 5736 5733 5730 5729 5725 5722 5716 5712 5710 5709 5709 5708 5706 5703 5700 5699 5697 5693 5692 5690 5689 5687 5684 5682 5682 5682 5682 5679 5677 5676 5674 5672 5671
5758 5756 5754 5751 5748 5745 5741 5739 5736 5734 5731 5728 5725 5723 5719 5715 5710 5706 5702 5704 5703 5702 5700 5697 5694 5692 5688 5684 5684 5683 5681 5681 5679 5677 5676 5675 5673 5672 5670 5670 5668 5666 5665
5754 5751 5749 5746 5742 5739 5737 5734 5731 5728 5725 5722 5720 5717 5714 5710 5704 5700 5695 5699 5697 5695 5694 5692 5687 5683 5679 5676 5676 5675 5673 5673 5673 5672 5670 5669 5669 5667 5664 5663 5664 5661 5660
5749 5746 5743 5739 5737 5735 5731 5728 5725 5722 5719 5716 5713 5711 5708 5704 5700 5694 5689 5691 5690 5689 5687 5686 5683 5674 5670 5668 5667 5668 5666 5664 5666 5666 5666 5665 5665 5663 5662 5660 5659 5658 5656
5743 5739 5736 5733 5732 5731 5726 5722 5719 5715 5712 5709 5706 5703 5702 5699 5695 5689 5683 5681 5679 5679 5679 5678 5674 5666 5662 5659 5659 5658 5656 5655 5659 5660 5659 5659 5658 5658 5657 5656 5653 5652 5651
5735 5732 5730 5727 5725 5723 5720 5716 5713 5709 5707 5705 5702 5699 5696 5694 5688 5682 5677 5673 5670 5670 5671 5666 5661 5658 5655 5655 5652 5651 5650 5653 5653 5652 5651 5651 5652 5652 5651 5649 5648 5646 5645
5727 5725 5722 5720 5718 5715 5712 5711 5707 5705 5702 5699 5696 5693 5690 5687 5683 5678 5674 5670 5665 5663 5662 5658 5653 5651 5650 5648 5648 5648 5648 5649 5648 5646 5645 5645 5645 5645 5644 5644 5642 5642 5640
5720 5717 5715 5713 5711 5706 5704 5700 5699 5695 5692 5689 5689 5687 5683 5679 5673 5666 5664 5664 5661 5658 5653 5653 5652 5650 5648 5647 5646 5645 5644 5643 5641 5640 5639 5638 5637 5637 5636 5636 5635 5635 5634
5711 5710 5710 5708 5704 5701 5697 5693 5687 5683 5679 5677 5674 5673 5672 5667 5661 5657 5654 5651 5649 5646 5646 5649 5648 5646 5643 5642 5640 5639 5637 5636 5635 5634 5632 5631 5630 5629 5629 5629 5628 5628 5628
5703 5702 5702 5700 5697 5693 5690 5687 5682 5676 5670 5668 5665 5662 5659 5656 5652 5649 5646 5644 5641 5638 5643 5645 5643 5640 5638 5636 5634 5632 5631 5629 5627 5627 5625 5624 5623 5623 5623 5622 5622 5621 5622
5696 5693 5691 5690 5688 5685 5682 5679 5676 5673 5670 5665 5659 5654 5651 5648 5645 5642 5639 5637 5639 5638 5641 5639 5637 5635 5633 5630 5628 5626 5624 5622 5620 5618 5617 5616 5616 5615 5615 5615 5615 5614 5615
5688 5686 5683 5682 5680 5676 5674 5671 5668 5666 5663 5659 5656 5651 5644 5641 5638 5635 5633 5636 5639 5638 5636 5633 5631 5629 5627 5625 5622 5620 5617 5615 5613 5612 5611 5609 5609 5609 5609 5610 5611 5608 5608
5679 5674 5672 5672 5671 5668 5665 5662 5660 5657 5655 5652 5650 5647 5643 5640 5639 5635 5632 5632 5632 5632 5630 5628 5626 5624 5621 5619 5616 5613 5612 5610 5608 5606 5606 5605 5604 5604 5605 5604 5605 5606 5606
5672 5668 5662 5663 5663 5660 5658 5655 5652 5649 5646 5644 5643 5640 5633 5634 5634 5631 5629 5627 5626 5625 5623 5621 5619 5617 5615 5612 5610 5608 5606 5605 5603 5602 5601 5600 5599 5599 5600 5600 5599 5600 5601
5663 5661 5659 5657 5655 5652 5650 5648 5646 5642 5639 5636 5635 5632 5625 5627 5627 5625 5623 5621 5621 5619 5617 5615 5614 5612 5609 5607 5604 5603 5601 5599 5598 5597 5596 5595 5594 5594 5595 5595 5595 5595 5595
5655 5654 5651 5649 5647 5642 5641 5640 5639 5636 5632 5630 5628 5626 5622 5620 5619 5617 5615 5615 5614 5612 5610 5608 5607 5605 5603 5600 5599 5597 5595 5594 5592 5591 5589 5589 5589 5590 5590 5589 5589 5589 5590
5647 5646 5644 5641 5639 5636 5635 5633 5631 5629 5626 5623 5620 5618 5615 5612 5611 5610 5609 5608 5607 5605 5603 5601 5599 5597 5595 5593 5592 5590 5588 5586 5585 5584 5583 5583 5584 5585 5585 5584 5585 5585 5585
5640 5638 5636 5634 5632 5630 5628 5626 5624 5622 5619 5616 5614 5611 5609 5607 5605 5603 5603 5601 5599 5598 5596 5594 5593 5591 5589 5587 5585 5583 5580 5577 5576 5576 5577 5578 5578 5578 5578 5578 5579 5579 5578
5633 5631 5629 5627 5625 5623 5620 5618 5616 5614 5612 5609 5607 5605 5602 5601 5599 5598 5596 5594 5593 5591 5590 5589 5587 5585 5583 5581 5578 5574 5571 5569 5568 5567 5569 5571 5572 5573 5572 5572 5572 5573 5572